User: anonymous   Login
Location: Unspecified
(0.0000°N, 0.0000°E)
Time: 18:49:10
(UTC+00:00)
Language:

PICSAT - Orbit

View from above orbital plane
View from above orbital plane
View from above satellite
View from above satellite

Ground track
Ground track

The orbit data is extracted from the following two-line orbital elements,

1 43132U 18004X   18350.90839998 +.00001006 +00000-0 +45697-4 0  9990
2 43132 097.5131 053.8998 0010126 170.1353 190.0085 15.23100260051529
Epoch (UTC): 16 December 2018 21:48:05
Eccentricity: 0.0010126
inclination: 97.5131°
perigee height: 489 km
apogee height: 503 km
right ascension of ascending node: 53.8998°
argument of perigee: 170.1353°
revolutions per day: 15.23100260
mean anomaly at epoch: 190.0085°
orbit number at epoch: 5152

The dashed part of the orbit path shows where the satellite is in the earth's shadow,  

DLR